Wind_Speed
26 24 22 20 24 25 19 17 6 21 30 30 37 22 20 24 23 23 14 8 9 10 9 6 5 7 9 9 6 6 7 7 7 6 6 6 5 4 4 2 1 2 2 3 2 3 3 4 4
27 27 24 23 22 25 18 10 21 27 16 30 24 26 21 29 26 21 21 22 20 19 16 15 14 11 11 11 11 11 9 8 8 8 9 8 8 6 5 6 5 2 2 2 3 4 5 5 5
27 27 26 25 24 23 20 33 26 39 36 34 33 27 31 37 36 26 27 25 25 24 22 20 18 16 15 15 14 13 13 12 13 13 13 12 10 10 8 8 7 6 5 4 3 4 5 5 6
28 27 27 29 26 23 29 35 34 26 29 35 31 31 35 37 33 28 26 31 28 28 26 24 24 21 19 19 17 18 17 16 16 17 15 16 15 15 12 11 11 11 9 7 7 7 7 6 6
31 32 30 28 27 26 13 30 37 38 28 38 39 31 39 37 34 30 32 32 32 29 29 28 27 27 25 22 21 21 21 21 19 18 18 17 15 14 14 14 13 12 12 12 9 9 9 9 8
38 38 37 34 26 28 18 27 40 29 28 28 29 28 38 40 34 27 30 33 34 29 31 31 30 29 29 28 27 25 25 24 23 22 21 21 20 18 18 18 17 16 15 14 12 11 11 11 10
43 40 39 39 37 33 31 32 39 38 37 29 39 32 34 45 41 31 29 29 30 29 30 31 32 33 32 31 29 29 27 24 24 25 25 25 23 23 22 21 20 19 17 18 17 15 14 13 13
45 47 45 43 39 41 40 42 38 40 32 43 47 32 43 49 51 34 32 35 36 34 31 32 33 30 29 31 31 31 30 29 28 28 28 27 26 25 25 24 22 22 21 20 20 19 17 16 15
47 49 47 47 43 42 41 43 43 43 44 43 43 33 44 52 44 37 35 38 38 36 32 33 32 33 35 35 35 34 33 32 30 30 31 29 27 28 28 28 26 24 25 25 23 22 20 20 18
43 46 46 44 39 43 47 50 45 54 47 43 42 39 40 50 42 39 38 41 39 41 38 36 35 36 36 36 34 34 35 34 32 33 33 34 33 33 33 34 32 28 28 28 28 26 24 23 21
38 39 37 34 36 46 50 45 52 53 46 42 39 41 42 48 46 42 39 42 43 42 39 42 39 39 36 35 33 33 33 32 34 38 39 39 37 35 36 35 34 32 34 33 30 30 29 29 26
39 39 39 38 44 51 43 42 48 42 43 45 41 43 43 46 43 37 36 40 42 43 38 33 40 49 35 39 30 35 35 35 40 43 38 39 37 38 39 39 41 38 37 40 36 33 33 34 32
35 33 36 39 44 50 44 45 45 44 45 43 41 44 42 44 44 41 43 43 42 44 42 45 43 35 43 34 34 38 36 37 39 40 39 39 40 40 41 43 42 42 42 41 43 43 38 38 37
29 31 35 38 40 42 40 41 42 40 38 42 39 39 36 37 39 37 36 38 38 43 44 47 49 47 38 26 41 39 40 42 41 42 42 44 43 43 41 44 47 44 45 45 46 47 47 43 42
29 31 31 31 33 33 35 36 35 33 34 36 36 34 34 34 34 34 33 33 34 37 44 43 43 40 45 34 32 38 39 40 40 41 41 41 40 38 38 40 45 48 46 49 49 51 47 47 48
25 26 27 27 29 30 32 29 30 31 34 36 34 34 36 36 36 35 35 35 35 34 39 44 41 42 43 38 39 42 39 38 40 39 41 38 37 38 38 33 38 46 50 52 50 50 54 48 49
27 29 28 26 26 27 34 31 28 32 37 38 34 36 37 38 39 38 39 38 39 40 42 45 45 44 46 42 44 43 43 41 41 43 42 41 38 39 41 41 42 41 46 45 49 48 54 51 51
25 23 22 24 15 30 33 35 30 33 38 38 36 36 38 39 40 42 41 41 43 44 43 45 46 49 50 49 46 48 47 46 45 44 44 44 44 41 44 43 42 47 46 52 49 43 48 51 52
25 23 29 20 16 27 35 37 35 36 37 42 41 40 41 43 44 46 46 48 48 49 48 50 48 49 49 51 50 49 50 49 49 49 49 48 46 45 44 50 51 52 53 53 53 56 54 55 54
30 33 37 33 32 34 38 43 47 41 42 44 43 40 37 37 34 36 39 40 42 44 40 41 41 44 48 47 48 49 49 50 50 50 51 53 53 49 48 51 54 56 57 57 57 57 58 57 56
36 38 38 37 38 42 42 46 39 34 32 35 35 36 35 33 37 36 39 43 48 47 43 34 40 43 43 44 46 47 49 51 51 51 49 50 51 50 49 50 53 58 60 59 60 61 59 59 59
37 34 32 35 37 40 35 42 35 28 28 35 36 38 36 36 40 41 44 52 52 50 46 45 42 46 47 47 47 48 49 50 51 53 52 54 49 50 49 49 52 56 59 60 59 61 59 61 61
31 32 34 34 35 39 38 42 38 32 32 30 30 34 39 40 41 50 53 53 52 48 51 54 52 49 50 52 51 52 53 54 55 55 56 57 55 59 50 48 49 54 58 58 61 61 64 61 61
37 36 37 39 39 45 38 39 36 29 25 24 26 31 35 44 49 51 50 51 50 52 55 56 57 58 57 53 55 57 58 58 60 59 59 58 58 61 58 52 53 58 60 61 61 65 63 62 61
35 36 36 36 33 39 25 28 28 20 29 35 36 39 49 54 52 48 47 43 46 54 57 58 57 57 59 57 55 60 63 63 63 64 64 64 63 62 62 60 62 64 65 66 62 67 64 65 62
33 27 32 36 40 42 36 43 36 35 25 26 28 39 50 54 53 54 48 50 54 54 56 57 56 57 59 60 61 61 63 64 65 66 68 68 67 66 64 64 66 69 66 49 61 51 55 60 60
42 45 43 48 52 51 45 41 44 41 49 44 40 43 50 58 57 49 41 47 50 51 56 57 56 60 61 62 64 65 64 65 67 66 67 68 67 66 65 66 71 68 67 61 57 65 70 45 51
33 33 37 38 44 40 40 31 29 35 40 43 43 49 50 55 55 50 51 52 50 52 58 57 58 60 61 64 66 65 64 66 67 68 68 68 68 66 65 67 70 69 69 68 68 67 61 51 44
29 35 37 40 44 47 46 43 30 41 34 38 41 45 50 55 56 56 62 59 51 54 57 57 60 60 58 58 61 65 67 65 66 64 63 63 65 65 65 67 69 64 69 70 72 69 64 52 50
29 31 35 40 40 40 38 40 31 42 39 41 35 50 55 57 57 61 63 61 55 54 56 58 61 64 60 58 60 58 59 66 67 66 62 63 63 65 65 66 70 67 67 66 72 71 70 63 74
Wind_Direction
211 211 215 220 222 222 209 173 156 260 231 213 242 243 223 230 220 215 243 252 271 276 267 260 270 300 297 298 291 276 283 281 289 292 281 287 290 308 329 334 14 58 21 28 27 15 19 13 15
211 213 215 220 217 216 206 190 226 250 230 238 247 250 247 244 239 241 245 258 264 276 274 272 272 273 280 286 288 288 285 295 298 299 293 289 290 292 297 301 304 310 317 329 342 353 357 355 345
213 217 217 219 213 214 171 231 223 231 241 242 246 248 238 235 251 241 249 263 267 272 276 277 275 277 278 275 279 284 283 280 286 299 300 300 295 294 299 294 288 284 279 286 301 324 327 331 330
215 218 221 223 216 203 207 227 227 234 232 238 245 255 242 244 256 263 262 265 266 270 276 280 284 280 276 279 277 279 283 284 288 292 297 297 295 297 295 293 293 293 294 299 307 313 307 308 309
218 223 224 226 219 215 227 231 233 233 237 252 254 249 256 248 252 254 258 262 268 270 274 277 280 283 281 274 272 274 279 280 281 284 289 289 290 292 299 301 301 299 300 303 303 300 302 306 309
226 229 231 225 220 212 233 225 232 224 230 252 256 248 254 265 249 259 259 261 264 270 272 274 275 276 280 281 278 275 275 276 276 277 281 283 285 282 284 290 299 299 298 296 296 293 292 294 295
238 235 242 238 229 228 212 255 239 241 243 254 251 244 260 263 261 258 264 262 262 260 265 267 272 272 276 279 279 278 276 280 278 281 283 280 277 278 281 285 285 286 287 289 288 286 285 285 288
234 235 238 239 245 243 235 240 245 242 243 246 247 250 258 263 267 264 267 265 263 263 259 262 268 269 268 275 280 279 280 281 284 283 281 281 283 285 287 283 282 279 279 280 279 277 277 276 278
235 236 238 241 239 246 245 251 253 247 238 247 254 250 257 262 275 277 274 270 269 266 265 268 266 266 267 271 274 274 276 277 280 281 281 280 277 283 280 280 281 276 276 276 273 272 269 271 274
234 239 241 245 246 247 245 245 245 253 254 249 256 261 260 268 268 266 268 271 275 271 273 271 270 269 267 267 265 265 268 269 271 275 270 274 274 274 274 278 279 271 271 270 275 267 264 263 267
235 238 240 240 245 244 247 250 250 257 259 258 252 251 250 256 263 262 262 268 269 275 275 268 267 265 266 266 264 262 258 257 266 265 266 267 269 268 268 271 271 269 267 260 260 262 265 266 264
236 238 240 244 242 250 250 251 254 254 260 258 258 255 256 259 262 265 262 261 265 264 269 274 276 258 247 261 258 260 257 257 257 261 262 264 265 266 267 260 265 264 263 263 255 251 253 256 259
243 243 242 242 247 254 255 257 260 263 261 261 262 262 259 260 259 254 252 256 260 266 268 264 277 233 243 239 260 263 261 256 260 263 264 263 265 265 268 264 263 263 261 266 261 258 250 251 254
245 244 244 246 249 255 256 257 259 261 267 267 264 262 259 259 261 259 258 259 257 258 261 260 262 266 279 275 256 258 260 264 263 263 264 265 266 266 267 270 273 269 268 263 261 257 257 253 252
242 245 246 248 251 251 253 252 257 259 260 258 260 261 264 262 257 259 259 253 253 256 262 261 264 264 253 280 269 267 265 264 263 262 264 262 264 265 264 264 266 265 266 265 266 263 261 261 259
241 244 241 244 248 250 253 253 255 257 254 256 257 258 258 254 256 257 255 253 251 249 256 268 265 263 263 275 267 268 265 264 264 264 264 264 266 261 259 261 261 262 266 269 271 264 266 270 272
241 244 251 250 256 257 255 255 254 252 254 256 258 260 261 263 262 261 261 260 256 253 248 253 258 260 263 259 262 262 263 260 260 260 259 259 260 260 260 257 260 260 264 266 268 270 264 264 273
244 249 249 257 251 264 254 256 251 257 258 260 262 262 264 263 265 265 262 261 263 260 256 258 260 259 263 262 259 262 262 263 262 262 262 261 259 259 261 262 260 257 260 257 263 260 262 269 270
231 206 229 219 243 259 270 258 256 254 260 268 264 263 266 266 266 269 268 267 266 263 262 257 255 261 263 267 267 267 269 268 268 269 268 265 262 261 262 264 266 267 266 260 262 264 264 266 269
236 236 239 235 233 246 252 261 264 264 264 265 269 271 267 267 264 264 266 266 263 262 261 264 267 266 267 270 268 269 268 267 267 265 267 269 269 265 263 265 268 269 270 272 270 267 267 269 269
245 248 251 254 250 251 257 264 269 269 265 262 263 265 265 266 268 268 268 267 266 263 265 265 271 268 267 267 270 267 267 268 268 269 271 265 266 266 265 263 263 265 268 268 269 269 270 272 272
252 259 255 253 253 256 257 265 266 274 277 274 268 266 266 265 264 265 263 260 264 270 276 273 263 268 268 267 267 270 269 267 266 268 266 267 264 265 262 261 261 262 265 265 266 268 268 268 268
249 250 253 250 252 257 258 264 270 270 272 275 279 283 278 269 262 256 262 266 272 279 274 272 273 270 268 270 270 267 266 268 267 264 264 266 269 264 261 261 264 263 263 264 266 266 267 267 267
252 255 257 258 260 261 265 269 273 279 280 275 276 271 270 268 263 266 269 271 274 272 273 272 271 271 269 267 268 268 266 265 265 265 265 266 267 269 273 269 263 262 262 263 263 265 264 266 266
264 265 265 265 266 271 281 286 289 279 243 241 239 244 252 266 272 275 273 275 272 269 268 268 268 270 270 267 262 263 265 265 265 266 264 265 265 265 269 272 271 267 257 257 255 261 263 261 256
252 251 255 261 256 252 233 239 237 243 242 239 252 244 254 264 270 272 274 276 269 266 267 267 268 268 266 268 266 264 263 263 263 263 264 265 265 266 266 267 270 270 264 275 260 262 282 240 247
257 261 266 265 267 270 271 261 253 245 242 245 254 263 262 265 267 271 273 268 268 269 267 268 268 267 268 268 267 265 264 263 263 263 263 264 264 264 266 267 268 268 271 270 264 273 278 287 220
268 268 262 261 268 265 268 266 255 250 256 256 252 253 262 262 266 274 277 274 273 273 272 273 271 268 266 268 269 269 268 266 263 264 264 264 264 264 263 263 264 267 268 270 270 270 266 280 242
266 269 267 269 268 269 268 260 257 254 251 263 257 256 257 263 274 276 277 277 279 281 281 278 276 272 269 268 266 269 269 268 268 266 265 263 262 262 262 262 263 261 262 265 267 266 266 260 259
274 270 266 263 266 269 269 266 259 265 262 248 253 258 262 267 272 274 277 284 285 278 276 276 277 278 279 274 271 266 263 267 268 268 267 265 263 261 260 260 261 261 259 260 263 265 267 276 261
Height
5874 5877 5879 5880 5885 5887 5892 5899 5899 5898 5898 5899 5898 5905 5906 5897 5902 5902 5904 5905 5909 5910 5910 5911 5911 5912 5912 5913 5913 5913 5913 5912 5911 5910 5909 5908 5907 5907 5906 5906 5905 5904 5904 5904 5904 5903 5902 5902 5902
5870 5872 5875 5877 5880 5883 5891 5899 5898 5895 5883 5891 5897 5903 5906 5895 5898 5901 5903 5904 5906 5907 5908 5909 5910 5910 5910 5910 5910 5911 5911 5911 5910 5909 5908 5907 5907 5905 5904 5904 5904 5903 5903 5903 5903 5902 5902 5902 5902
5866 5869 5871 5874 5876 5882 5887 5880 5888 5886 5886 5884 5894 5901 5896 5889 5889 5896 5900 5901 5903 5903 5904 5906 5908 5908 5909 5909 5908 5908 5908 5908 5908 5908 5907 5906 5905 5905 5904 5903 5902 5901 5901 5901 5901 5900 5901 5901 5901
5862 5865 5867 5869 5874 5880 5882 5881 5880 5881 5883 5884 5888 5892 5890 5889 5891 5892 5898 5896 5898 5900 5901 5902 5903 5905 5906 5906 5906 5906 5906 5905 5905 5905 5905 5905 5905 5904 5903 5902 5901 5901 5900 5900 5900 5900 5899 5900 5899
5856 5859 5862 5866 5871 5875 5876 5876 5874 5877 5880 5879 5881 5887 5877 5884 5888 5892 5892 5892 5893 5897 5898 5898 5898 5900 5901 5902 5902 5903 5903 5902 5902 5902 5902 5902 5903 5903 5903 5903 5901 5900 5899 5899 5899 5899 5899 5899 5898
5849 5854 5856 5861 5867 5870 5871 5870 5869 5875 5875 5875 5878 5880 5872 5873 5881 5886 5888 5889 5888 5893 5893 5893 5894 5895 5895 5897 5898 5899 5899 5899 5898 5898 5899 5899 5900 5900 5900 5900 5900 5899 5899 5898 5897 5897 5897 5897 5896
5846 5847 5852 5856 5860 5863 5863 5861 5866 5868 5872 5874 5867 5875 5872 5865 5870 5880 5882 5883 5883 5886 5888 5888 5889 5890 5891 5892 5892 5893 5894 5894 5894 5895 5895 5895 5895 5896 5897 5897 5898 5897 5895 5895 5896 5895 5894 5894 5895
5841 5842 5845 5849 5854 5857 5859 5857 5861 5861 5869 5861 5861 5875 5866 5860 5861 5876 5876 5876 5875 5877 5882 5883 5883 5884 5885 5887 5887 5888 5888 5888 5889 5889 5890 5891 5891 5891 5891 5892 5893 5893 5893 5893 5893 5892 5892 5891 5892
5834 5835 5837 5843 5847 5852 5854 5851 5853 5855 5859 5859 5862 5869 5863 5855 5864 5868 5871 5870 5868 5870 5874 5876 5879 5880 5880 5881 5882 5882 5883 5883 5883 5884 5885 5885 5886 5887 5887 5887 5888 5889 5889 5889 5889 5889 5890 5890 5889
5826 5829 5833 5838 5842 5842 5844 5844 5847 5843 5850 5855 5858 5859 5860 5852 5861 5862 5863 5863 5864 5863 5865 5869 5871 5872 5874 5875 5876 5877 5877 5878 5879 5879 5879 5879 5880 5880 5881 5883 5883 5883 5884 5884 5886 5886 5886 5885 5886
5822 5824 5828 5831 5832 5830 5832 5839 5836 5838 5844 5849 5850 5852 5853 5852 5851 5857 5860 5858 5857 5858 5859 5859 5861 5861 5863 5866 5867 5870 5871 5872 5873 5873 5872 5872 5873 5874 5876 5877 5878 5879 5879 5879 5880 5882 5883 5883 5882
5815 5818 5821 5823 5821 5820 5828 5831 5827 5834 5835 5837 5842 5842 5845 5846 5848 5852 5854 5853 5853 5855 5855 5832 5850 5846 5850 5856 5861 5861 5864 5864 5865 5865 5865 5865 5866 5867 5868 5871 5869 5872 5873 5873 5874 5875 5875 5877 5877
5806 5811 5814 5815 5816 5814 5821 5821 5823 5824 5826 5830 5832 5832 5838 5839 5840 5843 5841 5845 5847 5846 5846 5843 5843 5805 5837 5842 5850 5853 5853 5855 5856 5856 5857 5858 5859 5860 5861 5861 5863 5864 5866 5867 5869 5869 5869 5869 5871
5802 5804 5806 5808 5809 5810 5813 5815 5815 5817 5818 5818 5823 5823 5829 5829 5830 5832 5835 5838 5839 5836 5836 5835 5837 5837 5837 5838 5840 5843 5845 5847 5847 5847 5848 5848 5851 5852 5855 5854 5855 5857 5858 5859 5859 5860 5862 5863 5863
5796 5798 5800 5803 5804 5806 5806 5809 5810 5813 5812 5813 5814 5815 5817 5818 5820 5824 5827 5829 5831 5830 5823 5827 5828 5828 5827 5830 5829 5832 5836 5838 5839 5840 5840 5841 5842 5843 5845 5846 5847 5847 5850 5851 5852 5853 5854 5856 5856
5791 5793 5795 5798 5799 5801 5801 5804 5805 5806 5806 5805 5808 5810 5811 5814 5814 5816 5818 5820 5822 5824 5821 5814 5817 5818 5820 5821 5826 5826 5827 5829 5829 5831 5833 5834 5834 5834 5836 5838 5839 5840 5840 5842 5844 5845 5846 5848 5848
5786 5788 5790 5793 5793 5794 5794 5797 5799 5797 5797 5798 5801 5801 5802 5802 5805 5807 5808 5810 5811 5814 5814 5811 5810 5812 5812 5817 5817 5817 5817 5819 5820 5821 5822 5824 5825 5825 5826 5828 5830 5830 5831 5831 5833 5834 5836 5838 5839
5782 5784 5787 5788 5792 5788 5788 5788 5791 5790 5790 5791 5792 5794 5794 5795 5795 5797 5798 5799 5798 5800 5805 5806 5806 5805 5801 5807 5808 5807 5808 5810 5811 5811 5812 5813 5815 5817 5816 5818 5819 5819 5821 5824 5824 5824 5825 5826 5828
5775 5778 5779 5785 5787 5783 5779 5780 5782 5784 5784 5782 5784 5786 5787 5787 5787 5787 5788 5786 5787 5788 5791 5792 5795 5794 5796 5796 5798 5798 5798 5800 5801 5801 5802 5803 5806 5807 5809 5809 5810 5810 5812 5814 5814 5814 5815 5817 5817
5769 5770 5771 5774 5774 5775 5773 5772 5771 5777 5778 5777 5777 5776 5777 5776 5778 5777 5776 5775 5774 5773 5778 5779 5782 5785 5783 5783 5786 5786 5787 5787 5788 5790 5791 5792 5793 5797 5800 5800 5800 5800 5800 5800 5802 5802 5803 5803 5805
5760 5761 5763 5766 5766 5765 5764 5762 5765 5767 5767 5767 5768 5768 5769 5770 5768 5768 5767 5764 5762 5762 5766 5775 5772 5772 5774 5775 5774 5775 5776 5775 5776 5778 5779 5782 5783 5785 5789 5789 5789 5789 5788 5788 5786 5786 5788 5791 5791
5753 5755 5755 5756 5756 5755 5759 5753 5757 5759 5758 5758 5759 5759 5761 5761 5760 5760 5757 5752 5753 5754 5758 5760 5763 5761 5762 5763 5764 5763 5764 5764 5765 5766 5769 5770 5771 5773 5774 5777 5777 5776 5773 5773 5774 5773 5774 5775 5775
5744 5747 5747 5746 5746 5747 5749 5747 5750 5754 5754 5754 5753 5751 5748 5749 5750 5743 5743 5744 5746 5749 5747 5745 5747 5751 5752 5751 5752 5753 5753 5752 5752 5754 5755 5756 5757 5760 5763 5765 5765 5762 5761 5763 5762 5765 5763 5763 5764
5736 5740 5739 5738 5740 5736 5742 5743 5745 5748 5749 5750 5748 5744 5738 5737 5734 5734 5737 5737 5738 5737 5735 5735 5735 5735 5738 5742 5740 5738 5739 5740 5738 5739 5741 5744 5746 5744 5746 5753 5753 5749 5746 5746 5751 5747 5748 5752 5754
5730 5732 5732 5731 5730 5729 5738 5737 5738 5743 5740 5737 5739 5734 5729 5726 5725 5725 5726 5729 5727 5723 5722 5721 5724 5724 5722 5725 5727 5724 5724 5725 5726 5726 5727 5729 5731 5733 5733 5736 5734 5731 5722 5728 5734 5731 5732 5733 5733
5721 5723 5723 5719 5720 5720 5724 5720 5727 5729 5729 5728 5727 5726 5719 5717 5717 5714 5717 5717 5712 5712 5710 5709 5711 5709 5708 5708 5709 5710 5709 5708 5709 5710 5711 5713 5716 5717 5721 5723 5718 5711 5695 5712 5722 5722 5722 5704 5712
5712 5712 5716 5709 5709 5709 5715 5719 5721 5719 5715 5718 5715 5713 5711 5704 5703 5705 5707 5702 5700 5699 5696 5695 5697 5694 5694 5693 5692 5691 5693 5692 5692 5693 5694 5697 5700 5702 5706 5707 5701 5706 5705 5710 5712 5708 5708 5688 5696
5704 5706 5703 5702 5699 5701 5703 5706 5707 5705 5705 5703 5702 5699 5699 5693 5693 5696 5694 5689 5689 5686 5683 5682 5680 5679 5678 5675 5673 5674 5676 5674 5674 5676 5679 5682 5683 5685 5689 5690 5690 5690 5691 5692 5691 5694 5697 5695 5696
5698 5695 5696 5695 5692 5689 5691 5696 5701 5689 5694 5694 5691 5689 5685 5683 5681 5680 5676 5676 5677 5673 5668 5665 5661 5661 5661 5661 5659 5656 5655 5656 5656 5660 5662 5665 5666 5668 5671 5673 5670 5684 5680 5679 5677 5679 5684 5690 5672
5687 5687 5685 5682 5684 5682 5680 5678 5688 5678 5681 5680 5680 5677 5675 5673 5670 5664 5661 5661 5661 5661 5657 5652 5647 5642 5643 5642 5640 5642 5642 5639 5638 5639 5643 5646 5649 5650 5655 5657 5655 5663 5667 5667 5662 5666 5668 5675 5674